Flag for Morocco Weather past 2 weeks in Casablanca, Morocco

Now
72 °F

Clear.


Feels Like: 69 °F
Forecast: 74 / 80 °F
Wind: 3 mph from South

Location: Casablanca Airport

Current Time: Sep 16, 2014 at 4:43:14 AM

Latest Report: Sep 16, 2014 at 2:00 AM


Visibility: 10 mi

Pressure: 29.86 "Hg

Humidity: 88%

Dew point: 68 °F

Location of CasablancaLocation

Historic Weather in Casablanca — Graph

°F

Casablanca temperature yesterday

Maximum temperature yesterday: 79 °F (at 12:00 PM)
Minimum temperature yesterday: 68 °F (at 7:00 AM)
Average temperature yesterday: 74 °F

Past Weeks' High & Low Weather Summary

 TemperatureHumidityPressure
High81 °F (Sep 7, 2:00 PM)100% (Sep 14, 9:00 AM)30.04 "Hg (Sep 14, 9:00 AM)
Low68 °F (Sep 10, 7:00 AM)57% (Sep 15, 11:00 AM)29.59 "Hg (Sep 15, 5:00 PM)
Average75 °F79%29.96 "Hg
* Reported Sep 1 2:00 AM — Sep 16 2:00 AM, Casablanca, Weather by CustomWeather, © 2014

Note: Actual official high and low records may vary slightly from our data, if they occured in-between our weather recording intervals... More about our weather records

Advertising

Casablanca weather history for previous 24 hours

 ConditionsComfort  
Time TempWeatherWind HumidityBarometerVisibility
2:00 AM
Sep 16
72 °FClear.3 mph88%29.86 "Hg10 mi
1:00 AM72 °FClear.3 mph88%29.86 "Hg10 mi
12:00 AM72 °FClear.5 mph88%29.86 "Hg10 mi
11:00 PM
Sep 15
72 °FClear.2 mph83%29.86 "Hg10 mi
10:00 PM72 °FClear.3 mph83%29.86 "Hg10 mi
9:00 PM73 °FClear.2 mph78%29.83 "Hg10 mi
8:00 PM73 °FClear.5 mph78%29.83 "Hg10 mi
7:00 PM77 °FSunny.5 mph74%29.83 "Hg10 mi
6:00 PM79 °FSunny.7 mph61%29.83 "Hg10 mi
5:00 PM79 °FSunny.7 mph58%29.59 "Hg10 mi
4:00 PM79 °FSunny.9 mph61%29.89 "Hg10 mi
3:00 PM79 °FSunny.9 mph58%29.89 "Hg10 mi
2:00 PM79 °FSunny.9 mph58%29.92 "Hg10 mi
1:00 PM77 °FSunny.9 mph65%29.92 "Hg10 mi
12:00 PM79 °FSunny.9 mph58%29.92 "Hg10 mi
11:00 AM77 °FSunny.5 mph57%29.92 "Hg10 mi
10:00 AM73 °FSunny.6 mph74%29.95 "Hg10 mi
9:00 AM72 °FClear.No wind83%29.95 "Hg4 mi
8:00 AM68 °FClear.2 mph94%29.95 "Hg4 mi
7:00 AM68 °FClear.2 mph94%29.95 "Hg10 mi
Weather by CustomWeather, © 2014

See weather overviewHow to use our weather pages